Location: Fenile
(46.0500°N, 9.5500°E)
Time: 19:20:12
(UTC+00:00)

SL-4 R/B - Pass Details

Date: 03 March 2021
Orbit: 428 x 663 km, 51.6° (Epoch: 13 April)

Event Time Altitude Azimuth Distance (km) Brightness Sun altitude
Rises 19:51:26 0° 297° (WNW) 2,444 6.6 -28.1°
Reaches altitude 10° 19:53:35 10° 296° (WNW) 1,550 5.3 -28.5°
Enters shadow 19:54:49 20° 295° (WNW) 1,054 4.2 -28.7°
